Probability
0 0 0 0 0 0 0 0 0 0 0 0 0 0 0 0 0 0 0 0 0 0 0 0 0 0 0 0 0 0 0 0 0 0 0 0 0 0 0 0 0 0 0
0 0 0 0 0 0 0 0 0 0 0 0 0 0 0 0 0 0 0 0 0 0 0 0 0 0 0 0 0 0 0 0 0 0 0 0 0 0 0 0 0 0 0
0 0 0 0 0 0 0 0 0 0 0 0 0 0 0 0 0 0 0 0 0 0 0 0 0 0 0 0 0 0 0 0 0 0 0 0 0 0 0 0 0 0 0
0 0 0 0 0 0 0 0 0 0 0 0 0 0 0 0 0 0 0 0 0 0 0 0 0 0 0 0 0 0 0 0 0 0 0 0 0 0 0 0 0 0 0
0 0 0 0 0 0 0 0 0 0 0 0 0 0 0 0 0 0 0 0 0 0 0 0 0 0 0 0 0 0 0 0 0 0 0 0 0 0 0 0 0 0 0
0 0 0 0 0 0 0 0 0 0 0 0 0 0 0 0 0 0 0 0 0 0 0 0 0 0 0 0 0 0 0 0 0 0 0 0 0 0 0 0 0 0 0
0 0 0 0 0 0 0 0 0 0 0 0 0 0 0 0 0 0 0 0 0 0 0 0 0 0 0 0 0 0 0 0 0 0 0 0 0 0 0 0 0 0 0
0 0 0 0 0 0 0 0 0 0 0 0 0 0 0 0 0 0 0 0 0 0 0 0 0 0 0 0 0 0 0 0 0 0 0 0 0 0 0 0 0 0 0
0 0 0 0 0 0 0 0 0 0 0 0 0 0 0 0 0 0 0 0 0 0 0 0 0 0 0 0 0 0 0 0 0 0 0 0 0 0 0 0 0 0 0
0 0 0 0 0 0 0 0 0 0 0 0 0 0 0 0 0 0 0 0 0 0 0 0 0 0 0 0 0 0 0 0 0 0 0 0 0 0 0 0 0 0 0
0 0 0 0 0 0 0 0 0 0 0 0 0 0 0 0 0 0 0 0 0 0 0 0 0 0 0 0 0 0 0 0 0 0 0 0 0 0 0 0 0 0 0
0 0 0 0 0 0 0 0 0 0 0 0 0 0 0 0 0 0 0 0 0 0 0 0 0 0 0 0 0 0 0 0 0 0 0 0 0 0 0 0 0 0 0
0 0 0 0 0 0 0 0 0 0 0 0 0 0 0 0 0 0 0 0 0 0 0 0 0 0 0 0 0 0 0 0 0 0 0 0 0 0 0 0 0 0 0
0 0 0 0 0 0 0 0 0 0 0 0 0 0 0 0 0 0 0 0 0 0 0 0 0 0 0 0 0 0 0 0 0 0 0 0 0 0 0 0 0 0 0
0 0 0 0 0 0 0 0 0 0 0 0 0 0 0 0 0 0 0 0 0 0 0 0 0 0 0 0 0 0 0 0 0 0 0 0 0 0 0 0 0 0 0
0 0 0 0 0 0 0 0 0 0 0 0 0 0 0 0 0 0 0 0 0 0 0 0 0 0 0 0 0 0 0 0 0 0 0 0 0 0 0 0 0 0 0
0 0 0 0 0 0 0 0 0 0 0 0 0 0 0 0 0 0 0 0 0 0 0 0 0 0 0 0 0 0 0 0 0 0 0 0 0 0 0 0 0 0 0
0 0 0 0 0 0 0 0 0 0 0 0 0 0 0 0 0 0 0 0 0 0 0 0 0 0 0 0 0 0 0 0 0 0 0 0 0 0 0 0 0 0 0
0 0 0 0 0 0 0 0 0 0 0 0 0 0 0 0 0 0 0 0 0 0 0 0 0 0 0 0 0 0 0 0 0 0 0 0 0 0 0 0 0 0 0
0 0 0 0 0 0 0 0 0 0 0 0 0 0 0 0 0 0 0 0 0 0 0 0 0 0 0 0 0 0 0 0 0 0 0 0 0 0 0 0 0 0 0
0 0 0 0 0 0 0 0 0 0 0 0 0 0 0 0 0 0 0 0 0 0 0 0 0 0 0 0 0 0 0 0 0 0 0 0 0 0 0 0 0 0 0
0 0 0 0 0 0 0 0 0 0 0 0 0 0 0 0 0 0 0 0 0 0 0 0 0 0 0 0 0 0 0 0 0 0 0 0 0 0 0 0 0 0 0
0 0 0 0 0 0 0 0 0 0 0 0 0 0 0 0 0 0 0 0 0 0 0 0 0 0 0 0 0 0 0 0 0 0 0 0 0 0 0 0 0 0 0
0 0 0 0 0 0 0 0 0 0 0 0 0 0 0 0 0 0 0 0 0 0 0 0 0 0 0 0 0 0 0 0 0 0 0 0 0 0 0 0 0 0 0
0 0 0 0 0 0 0 0 0 0 0 0 0 0 0 0 0 0 0 0 0 0 0 0 0 0 0 0 0 0 0 0 0 0 0 0 0 0 0 0 0 0 0
0 0 0 0 0 0 0 0 0 0 0 0 0 0 0 0 0 0 0 0 0 0 0 0 0 0 0 0 0 0 0 0 0 0 0 0 0 0 0 0 0 0 0
Height
5720 5715 5710 5704 5699 5692 5685 5678 5670 5662 5653 5644 5634 5625 5614 5603 5591 5580 5569 5556 5544 5532 5520 5508 5497 5487 5479 5472 5464 5457 5450 5439 5430 5436 5439 5440 5438 5436 5436 5434 5433 5433 5435
5710 5704 5699 5693 5686 5679 5670 5662 5653 5644 5635 5626 5615 5605 5593 5581 5567 5555 5543 5529 5516 5504 5493 5481 5472 5463 5456 5449 5443 5437 5430 5422 5413 5410 5416 5418 5417 5414 5411 5411 5412 5411 5413
5699 5693 5686 5679 5672 5663 5655 5646 5637 5628 5618 5607 5595 5582 5569 5555 5540 5526 5512 5499 5486 5476 5466 5457 5449 5441 5436 5429 5423 5416 5410 5403 5395 5387 5388 5392 5393 5391 5387 5387 5388 5390 5392
5686 5680 5673 5664 5656 5648 5639 5630 5620 5610 5598 5586 5572 5557 5542 5526 5511 5497 5484 5473 5463 5454 5445 5436 5428 5420 5413 5407 5401 5394 5386 5380 5373 5366 5362 5362 5363 5364 5360 5359 5362 5367 5369
5673 5666 5658 5649 5641 5632 5622 5612 5601 5589 5575 5561 5546 5531 5515 5499 5484 5471 5460 5451 5441 5433 5425 5415 5406 5398 5389 5381 5374 5368 5360 5352 5347 5341 5336 5333 5333 5333 5331 5330 5332 5340 5347
5659 5651 5643 5635 5625 5615 5604 5593 5581 5567 5551 5536 5521 5506 5492 5476 5463 5450 5437 5427 5418 5408 5399 5391 5382 5374 5364 5354 5346 5337 5329 5321 5315 5310 5306 5304 5303 5302 5300 5301 5304 5311 5322
5645 5636 5628 5618 5607 5596 5584 5571 5558 5544 5529 5514 5499 5484 5471 5458 5443 5430 5415 5402 5392 5381 5370 5360 5352 5343 5331 5321 5313 5307 5301 5294 5285 5280 5279 5277 5275 5275 5274 5277 5279 5285 5295
5629 5620 5611 5601 5590 5577 5563 5548 5535 5521 5507 5493 5480 5466 5453 5438 5422 5406 5389 5376 5365 5354 5342 5331 5320 5310 5298 5286 5279 5275 5272 5268 5262 5259 5257 5254 5253 5253 5254 5256 5259 5265 5275
5613 5604 5594 5583 5571 5556 5541 5527 5514 5501 5488 5475 5462 5447 5431 5417 5399 5382 5365 5352 5343 5334 5324 5312 5298 5286 5276 5264 5254 5250 5248 5247 5245 5243 5240 5238 5236 5237 5238 5240 5244 5249 5258
5598 5588 5576 5564 5550 5535 5521 5507 5494 5482 5470 5458 5445 5428 5410 5394 5379 5363 5347 5334 5326 5319 5310 5299 5286 5272 5262 5252 5243 5237 5233 5232 5231 5230 5228 5225 5225 5227 5228 5230 5233 5237 5243
5582 5570 5557 5543 5529 5516 5502 5489 5476 5465 5454 5441 5428 5414 5395 5377 5362 5349 5335 5322 5311 5304 5296 5286 5274 5263 5253 5245 5236 5229 5223 5220 5219 5218 5217 5216 5217 5219 5222 5223 5225 5227 5231
5565 5552 5538 5524 5510 5497 5484 5472 5460 5447 5435 5422 5410 5398 5382 5364 5348 5336 5324 5312 5300 5291 5282 5273 5263 5253 5245 5237 5229 5222 5217 5213 5210 5209 5209 5210 5212 5214 5216 5218 5219 5220 5222
5546 5532 5520 5507 5493 5479 5467 5455 5444 5431 5418 5405 5392 5380 5367 5353 5338 5325 5314 5303 5292 5282 5273 5263 5253 5245 5237 5230 5222 5216 5211 5207 5205 5204 5205 5207 5209 5211 5212 5213 5214 5215 5217
5529 5516 5504 5491 5479 5465 5452 5440 5428 5416 5403 5390 5375 5363 5350 5338 5326 5314 5304 5293 5283 5273 5264 5256 5247 5238 5230 5223 5216 5210 5205 5202 5201 5202 5203 5205 5206 5208 5208 5209 5211 5212 5214
5512 5500 5487 5474 5462 5451 5440 5427 5415 5404 5387 5372 5359 5345 5333 5323 5311 5299 5288 5279 5270 5262 5255 5248 5241 5233 5226 5219 5212 5207 5203 5201 5201 5202 5202 5204 5204 5205 5205 5207 5209 5211 5213
5497 5484 5470 5458 5447 5436 5427 5419 5406 5392 5380 5362 5345 5331 5320 5308 5297 5287 5277 5268 5261 5253 5247 5240 5234 5226 5220 5214 5209 5205 5202 5202 5202 5202 5202 5202 5202 5202 5204 5205 5208 5209 5211
5478 5465 5454 5442 5432 5422 5412 5403 5396 5386 5371 5353 5336 5322 5310 5299 5287 5276 5267 5260 5253 5246 5240 5234 5228 5221 5216 5211 5207 5205 5204 5204 5203 5203 5201 5201 5201 5202 5204 5206 5207 5209 5210
5458 5447 5437 5427 5418 5408 5398 5388 5377 5367 5358 5344 5328 5313 5301 5290 5279 5268 5259 5253 5247 5241 5235 5229 5223 5218 5214 5211 5209 5208 5207 5206 5205 5203 5201 5201 5202 5203 5205 5206 5208 5209 5211
5441 5432 5423 5414 5404 5394 5384 5374 5363 5352 5340 5328 5316 5305 5293 5283 5272 5262 5253 5246 5240 5235 5230 5225 5220 5216 5214 5213 5212 5211 5209 5207 5205 5203 5202 5202 5203 5204 5206 5207 5209 5211 5214
5427 5417 5408 5400 5391 5381 5370 5360 5349 5338 5326 5314 5303 5293 5284 5275 5265 5257 5248 5241 5236 5231 5226 5222 5218 5217 5216 5216 5215 5214 5211 5209 5206 5205 5204 5204 5205 5207 5208 5210 5212 5214 5216
5412 5404 5395 5386 5376 5366 5356 5345 5335 5324 5313 5302 5292 5283 5274 5266 5258 5250 5243 5237 5232 5228 5224 5220 5219 5219 5220 5220 5218 5216 5213 5211 5210 5209 5209 5209 5210 5211 5213 5214 5215 5216 5217
5398 5390 5381 5372 5363 5353 5342 5332 5321 5311 5300 5290 5282 5274 5267 5259 5252 5246 5240 5235 5230 5225 5223 5221 5222 5223 5224 5223 5221 5219 5217 5216 5215 5216 5216 5216 5217 5217 5217 5217 5216 5216 5215
5384 5376 5368 5358 5348 5339 5329 5318 5307 5297 5287 5279 5272 5265 5258 5252 5247 5242 5237 5233 5228 5225 5224 5224 5226 5227 5227 5226 5224 5223 5222 5222 5222 5222 5222 5221 5220 5219 5218 5217 5216 5214 5213
5370 5362 5353 5344 5335 5325 5315 5304 5293 5283 5275 5268 5262 5256 5250 5245 5241 5238 5235 5231 5228 5227 5227 5229 5231 5232 5231 5230 5229 5229 5229 5229 5229 5228 5227 5225 5223 5221 5219 5216 5214 5212 5210
5356 5347 5338 5329 5319 5309 5299 5289 5279 5271 5264 5258 5253 5247 5242 5239 5237 5235 5232 5231 5230 5230 5232 5234 5235 5236 5235 5235 5235 5236 5236 5236 5235 5233 5231 5228 5225 5222 5219 5216 5213 5211 5209
5341 5332 5323 5313 5303 5292 5282 5273 5266 5260 5254 5249 5244 5239 5236 5235 5234 5233 5232 5231 5232 5234 5237 5239 5240 5240 5241 5242 5243 5244 5244 5243 5241 5238 5235 5231 5228 5224 5220 5218 5215 5214 5212
Wind_Speed
41 44 47 51 55 59 63 68 71 75 78 80 82 84 87 90 94 98 102 104 105 105 103 100 95 90 84 77 71 66 65 68 71 68 65 64 65 66 67 68 68 68 68
45 49 53 56 60 64 68 72 75 78 80 82 85 88 92 96 100 103 105 105 103 100 95 90 84 77 70 65 62 61 63 66 70 70 67 65 65 66 67 66 66 66 66
52 55 59 62 66 69 72 74 77 79 82 86 90 95 99 102 103 103 101 97 94 89 84 79 75 70 66 65 65 66 68 70 74 78 77 74 71 70 70 68 65 64 64
58 61 64 67 70 72 74 76 79 83 87 92 97 100 102 102 99 96 92 87 83 80 76 74 73 72 72 71 72 74 76 79 81 85 86 84 81 78 76 73 68 64 63
62 64 67 69 71 74 77 80 84 89 93 97 99 99 98 94 90 86 83 81 79 77 75 75 76 77 78 80 81 83 86 88 90 93 93 90 86 81 78 75 72 65 60
63 66 68 71 74 77 81 85 90 94 97 98 96 93 88 84 82 82 83 83 82 82 81 81 82 84 86 88 91 93 94 96 97 96 92 85 79 74 71 69 67 63 58
65 68 71 74 78 81 86 90 94 97 96 93 88 85 82 83 86 88 89 90 89 89 89 89 89 89 91 93 93 94 93 92 89 86 80 72 67 63 60 57 57 57 55
68 71 74 77 81 86 90 94 96 94 90 85 82 81 84 88 91 91 90 88 86 84 82 80 79 79 79 80 81 79 76 71 67 64 61 58 55 50 46 46 47 50 50
71 74 77 81 85 89 93 94 92 87 82 79 79 85 89 90 89 86 83 81 76 70 66 65 65 65 62 61 61 60 56 52 48 46 46 45 43 39 36 36 38 41 43
73 76 80 84 88 91 92 90 85 80 77 78 82 88 91 89 83 79 77 73 67 61 58 57 56 56 53 51 50 49 45 41 36 33 33 34 32 28 27 28 30 33 35
75 79 84 87 90 91 88 83 79 76 77 80 86 89 89 84 77 73 69 65 62 59 56 53 51 49 48 45 44 43 41 37 30 24 22 22 22 20 21 23 26 29 29
79 83 86 89 89 87 83 78 75 75 78 83 88 88 84 76 71 66 62 60 60 58 53 48 46 45 44 42 40 39 37 32 25 16 12 12 13 15 17 20 24 26 25
82 85 87 87 85 81 78 75 74 76 80 86 90 87 79 70 65 62 60 58 57 53 47 44 43 43 41 39 38 37 33 26 17 8 6 7 10 12 16 19 21 21 18
84 86 87 84 80 76 74 74 75 78 81 87 90 85 76 69 65 62 59 56 52 47 42 41 42 42 40 38 36 33 28 19 7 3 4 6 8 11 14 15 14 12 11
86 87 84 80 77 73 72 73 75 77 83 89 88 82 74 68 66 62 58 54 49 44 41 40 41 39 35 33 32 29 20 9 3 1 3 5 7 9 9 8 8 8 8
86 84 80 77 73 72 72 71 73 76 81 87 83 75 69 67 65 60 55 51 47 43 41 40 39 36 31 28 25 18 9 3 3 5 6 6 5 6 6 5 3 4 5
83 80 77 74 72 71 71 72 72 72 79 82 75 68 65 64 61 56 52 49 46 43 40 38 36 31 27 23 15 6 3 5 8 11 11 7 1 5 5 3 2 2 2
79 77 74 71 70 70 70 72 74 75 79 78 68 62 60 58 54 51 48 46 42 38 36 34 31 25 21 12 4 3 6 10 13 15 11 4 2 5 5 4 2 2 4
75 72 70 68 68 69 70 72 74 77 81 76 63 56 55 52 48 46 44 43 39 33 30 29 24 18 10 3 3 6 10 14 15 13 8 3 2 4 5 4 4 6 9
71 69 68 67 67 68 70 73 75 78 80 70 58 54 50 46 43 42 41 38 33 29 26 22 16 8 2 3 6 10 14 15 14 11 9 7 6 5 5 5 6 8 10
68 66 66 65 66 68 71 74 76 79 75 63 54 50 47 43 41 40 36 32 29 25 20 15 7 3 4 5 9 13 15 13 13 14 15 14 13 11 8 5 5 6 8
65 64 63 64 66 69 72 75 78 77 69 57 49 45 43 40 37 34 31 29 25 20 13 6 4 7 6 8 11 13 13 15 17 18 17 15 12 8 5 2 2 4 7
63 62 63 65 68 71 74 77 77 72 60 51 46 43 40 36 32 29 27 25 20 14 6 5 9 8 8 10 12 14 18 20 19 17 15 13 11 9 8 8 8 9 11
62 63 64 67 70 73 77 77 73 63 52 46 43 41 37 30 25 24 22 18 13 6 6 11 11 10 11 13 18 22 23 21 19 17 15 14 13 12 11 11 11 11 10
63 65 67 70 73 77 77 72 63 52 46 42 40 37 29 22 19 18 14 11 6 6 13 13 12 12 16 23 26 26 25 23 21 20 18 17 16 15 14 14 13 12 11
66 68 71 74 77 76 71 61 51 45 41 38 36 30 21 15 13 11 8 5 6 13 16 14 14 20 27 29 29 28 27 26 25 24 24 22 21 20 20 19 19 18 18
Wind_Direction
300 301 303 305 306 307 308 308 308 308 308 307 306 305 305 304 304 304 303 302 301 300 299 298 296 295 294 292 291 290 288 287 288 288 287 285 281 277 272 268 263 260 257
301 303 304 306 308 308 309 309 309 308 307 306 305 305 305 305 304 304 303 303 301 300 298 297 295 293 291 290 289 289 288 288 288 289 288 286 284 282 278 273 268 263 259
304 306 307 308 309 309 309 308 307 306 306 306 306 306 306 306 306 306 305 304 302 301 299 297 294 292 290 289 288 288 287 288 288 288 289 288 285 282 278 275 271 266 261
308 309 309 309 309 309 308 307 307 307 307 308 308 309 309 309 309 308 306 305 303 300 298 295 292 291 290 288 287 286 286 286 286 287 288 287 285 282 278 274 271 267 263
308 309 309 309 308 308 309 309 309 309 310 311 311 312 312 312 311 309 307 306 303 300 297 293 291 289 288 287 286 286 285 285 286 287 287 286 284 281 277 273 270 265 261
308 308 308 308 310 311 311 311 312 312 313 314 314 315 314 314 312 311 308 306 303 300 297 294 291 289 287 286 285 285 285 285 286 286 286 285 284 281 277 273 268 263 257
308 309 310 312 312 313 313 313 314 315 316 316 316 316 316 315 313 310 307 305 303 300 298 296 294 292 290 287 285 284 284 284 285 285 286 286 284 281 276 271 264 258 253
310 311 313 313 313 313 315 316 316 317 317 317 317 317 317 316 314 311 309 307 306 304 303 302 301 299 296 293 289 287 285 284 284 284 285 285 284 280 275 269 260 253 249
311 312 313 313 314 316 317 317 317 318 317 317 318 319 320 319 317 316 314 312 312 312 312 312 310 307 303 299 295 293 290 288 286 285 283 282 280 276 271 265 258 252 246
311 312 313 315 317 318 318 318 318 317 316 318 321 323 322 321 320 318 317 317 318 318 318 316 313 311 308 305 302 301 299 296 292 287 281 277 274 272 267 264 261 257 250
312 314 316 317 318 319 319 318 316 316 318 321 323 325 324 322 319 318 318 318 319 320 320 318 316 314 313 312 310 307 306 305 302 291 276 267 266 265 262 260 261 262 259
314 317 319 320 320 319 318 316 315 317 320 323 325 325 324 322 320 320 320 319 319 320 321 321 319 318 318 317 313 310 310 309 306 294 268 252 251 254 256 257 260 264 265
317 319 320 320 320 319 317 316 317 319 321 324 325 325 324 323 322 321 320 319 318 318 320 321 321 320 319 317 314 313 312 311 306 285 237 227 236 245 253 258 262 263 262
319 320 320 320 319 317 316 316 318 320 322 325 326 325 324 323 322 321 320 319 319 318 317 320 321 321 320 318 316 315 315 313 304 255 221 231 243 254 261 258 254 251 249
320 320 320 319 318 317 317 317 318 321 324 326 326 325 323 322 323 323 322 322 322 320 319 320 322 321 319 316 315 314 315 313 313 286 265 264 264 262 251 237 233 237 246
320 320 319 318 317 316 316 317 319 321 324 326 326 324 322 323 324 324 323 322 321 319 319 321 323 323 320 318 316 314 315 333 339 324 317 311 280 233 210 202 217 244 254
320 320 318 317 316 316 316 317 319 321 324 327 325 322 322 323 324 323 321 321 320 319 320 322 324 324 322 322 322 325 355 357 344 335 332 329 243 182 178 186 246 261 245
320 319 317 316 315 315 316 318 319 322 325 327 325 322 323 324 324 321 319 320 320 319 320 322 324 325 326 328 339 17 4 352 345 341 341 348 162 177 190 208 217 181 167
319 317 315 314 314 315 316 318 320 323 326 327 325 323 323 324 323 320 318 319 321 322 322 322 324 328 334 360 28 8 359 353 349 350 1 44 146 181 196 205 190 178 180
316 315 314 314 314 315 317 319 321 324 327 326 324 323 323 324 323 321 320 321 323 324 324 324 327 340 57 52 15 4 360 359 7 28 49 67 98 121 134 148 168 186 202
315 314 314 314 314 316 317 319 321 324 326 324 322 323 324 324 324 324 325 325 326 326 326 328 342 92 88 35 13 6 7 24 53 67 73 79 86 91 101 123 169 208 233
314 313 313 314 315 316 318 319 321 324 324 322 321 322 323 322 322 324 326 328 329 330 332 347 98 103 64 32 17 17 38 68 76 76 74 73 72 70 65 39 318 297 295
312 313 313 315 316 317 318 319 321 322 322 321 320 321 320 319 318 322 326 328 331 336 355 93 108 84 54 38 42 65 82 83 79 74 68 62 54 42 24 3 342 326 316
312 313 314 315 316 316 317 319 320 321 320 319 319 320 319 315 315 321 326 330 337 359 92 111 99 76 61 68 86 91 88 82 76 70 61 51 37 20 5 352 345 339 338
313 314 315 315 316 316 317 318 319 319 319 319 319 320 318 314 316 324 330 338 2 96 116 110 95 81 89 99 97 92 87 81 73 63 52 42 32 23 20 19 24 31 38
314 314 315 315 316 316 317 317 318 318 318 318 319 320 316 313 319 331 343 10 100 121 119 109 99 104 107 103 99 93 86 78 69 61 53 47 44 44 47 52 57 62 65